GW3736 Weather Reports


time (UTC)temp
F
wind
direction
speed
knots
gust
knots
rain 1hr
in
rain 24hr
in
rain mn
in
humidity
%
barometer
mb
20260503052538 42 246 2.6 6.1 0.00 0.00 0.00 59 1011.3
20260503051534 42 245 2.6 6.1 0.00 0.00 0.00 59 1011.3
20260503050530 42 247 1.7 3.5 0.00 0.00 0.00 58 1011.3
20260503045526 42 245 1.7 5.2 0.00 0.00 0.00 58 1011.4
20260503044522 42 231 1.7 3.5 0.00 0.00 0.00 58 1011.3
20260503043518 42 238 1.7 5.2 0.00 0.00 0.00 58 1011.4
20260503042534 42 241 1.7 3.5 0.00 0.00 0.00 58 1011.5
20260503041530 42 244 1.7 3.5 0.00 0.00 0.00 58 1011.6
20260503040526 42 245 1.7 5.2 0.00 0.00 0.00 58 1011.6
20260503034518 42 245 1.7 3.5 0.00 0.00 0.00 60 1011.6
20260503033554 41 249 0.9 1.7 0.00 0.00 0.00 61 1011.6
20260503032550 41 247 0.0 1.7 0.00 0.00 0.00 61 1011.7
20260503031526 41 251 0.0 2.6 0.00 0.00 0.00 62 1011.8
20260503030602 40 253 0.0 0.9 0.00 0.00 0.00 62 1011.8
20260503025538 40 256 0.0 0.9 0.00 0.00 0.00 62 1011.8
20260503024534 40 256 0.0 0.9 0.00 0.00 0.00 62 1011.9
20260503023530 40 0.0 0.0 0.00 0.00 0.00 61 1012.1
20260503022526 40 256 0.0 0.9 0.00 0.00 0.00 61 1012.2
20260503021522 41 0.0 0.0 0.00 0.00 0.00 60 1012.2
20260503020518 41 256 0.0 0.9 0.00 0.00 0.00 59 1012.0
20260503015534 41 0.0 0.0 0.00 0.00 0.00 58 1012.1
20260503014530 41 0.0 0.0 0.00 0.00 0.00 57 1012.0
20260503013526 42 0.0 0.0 0.00 0.00 0.00 56 1012.0
20260503012522 42 0.0 0.0 0.00 0.00 0.00 55 1011.9
20260503011538 43 0.0 0.0 0.00 0.00 0.00 54 1011.9
20260503010534 43 0.0 0.0 0.00 0.00 0.00 53 1012.0
20260503005530 44 0.0 0.0 0.00 0.00 0.00 52 1011.8
20260503004526 44 0.0 0.0 0.00 0.00 0.00 52 1011.8
20260503003522 45 0.0 0.0 0.00 0.00 0.00 50 1011.8
20260503002539 46 0.0 0.0 0.00 0.00 0.00 49 1011.8
20260503001535 46 256 0.9 1.7 0.00 0.00 0.00 48 1011.7
20260503000531 46 266 0.0 0.9 0.00 0.00 0.00 47 1011.9
20260502235527 47 274 1.7 3.5 0.00 0.00 0.00 46 1011.8
20260502234523 47 264 0.9 1.7 0.00 0.00 0.00 44 1011.8
20260502233519 48 275 2.6 5.2 0.00 0.00 0.00 44 1011.9
20260502232555 48 275 1.7 5.2 0.00 0.00 0.00 43 1011.9
20260502231611 48 287 2.6 6.1 0.00 0.00 0.00 44 1011.8
20260502230527 48 289 2.6 6.1 0.00 0.00 0.00 45 1011.9
20260502225523 48 281 2.6 7.8 0.00 0.00 0.00 45 1011.9
20260502224519 48 283 2.6 8.7 0.00 0.00 0.00 43 1011.9
20260502223535 48 278 2.6 7.8 0.00 0.00 0.00 44 1012.0
20260502222531 48 289 2.6 7.0 0.00 0.00 0.00 46 1011.9
20260502221607 48 287 2.6 7.0 0.00 0.00 0.00 45 1012.0
20260502220524 48 295 3.5 7.8 0.00 0.00 0.00 44 1011.9
20260502215519 48 277 3.5 7.8 0.00 0.00 0.00 44 1012.1
20260502214515 48 289 3.5 7.0 0.00 0.00 0.00 44 1012.1
20260502213531 48 281 3.5 8.7 0.00 0.00 0.00 44 1012.1
20260502212527 48 277 2.6 8.7 0.00 0.00 0.00 42 1012.0
20260502211524 48 279 5.2 11.3 0.00 0.00 0.00 43 1012.1
20260502210519 48 273 2.6 5.2 0.00 0.00 0.00 42 1012.1
20260502205556 48 281 5.2 9.6 0.00 0.00 0.00 43 1012.1
20260502204532 48 281 4.3 9.6 0.00 0.00 0.00 43 1012.2
20260502203527 49 280 3.5 7.8 0.00 0.00 0.00 42 1012.2
20260502202524 48 282 1.7 6.1 0.00 0.00 0.00 43 1012.3
20260502201520 48 283 2.6 6.1 0.00 0.00 0.00 42 1012.4
20260502200516 48 285 3.5 7.0 0.00 0.00 0.00 44 1012.5
20260502195532 48 286 3.5 7.0 0.00 0.00 0.00 42 1012.6
20260502194528 49 296 3.5 11.3 0.00 0.00 0.00 43 1012.7
20260502193524 49 278 2.6 7.0 0.00 0.00 0.00 43 1012.7
20260502192520 48 289 2.6 6.1 0.00 0.00 0.00 43 1012.9
20260502191536 48 254 2.6 7.0 0.00 0.00 0.00 43 1012.9
20260502190552 48 272 4.3 7.8 0.00 0.00 0.00 42 1013.0
20260502185527 47 283 3.5 7.0 0.00 0.00 0.00 43 1013.0
20260502184524 48 268 5.2 8.7 0.00 0.00 0.00 42 1013.1
20260502183520 48 287 4.3 7.8 0.00 0.00 0.00 42 1013.1
20260502182556 48 297 2.6 6.1 0.00 0.00 0.00 43 1013.0
20260502181532 49 293 3.5 8.7 0.00 0.00 0.00 42 1013.1
20260502180527 50 298 4.3 7.8 0.00 0.00 0.00 45 1013.3
20260502163531 46 328 2.6 7.8 0.00 0.00 0.00 50 1013.6
20260502162527 46 318 1.7 5.2 0.00 0.00 0.00 50 1013.7
20260502161524 46 316 2.6 6.1 0.00 0.00 0.00 51 1013.7
20260502160519 46 327 2.6 7.0 0.00 0.00 0.00 52 1013.7
20260502151520 45 334 3.5 7.0 0.00 0.00 0.00 56 1013.8
20260502150515 45 336 3.5 7.8 0.00 0.00 0.00 55 1013.6
20260502130527 43 335 3.5 6.1 0.00 0.00 0.00 65 1014.0
20260502123535 42 0 0.9 3.5 0.00 0.00 0.00 69 1013.8
20260502122530 41 344 2.6 3.5 0.00 0.00 0.00 69 1013.8
20260502121527 40 338 2.6 6.1 0.00 0.00 0.00 71 1013.8
20260502120522 40 339 1.7 5.2 0.00 0.00 0.00 72 1013.8
20260502115518 39 339 2.6 6.1 0.00 0.00 0.00 72 1013.8
20260502114534 39 340 2.6 3.5 0.00 0.00 0.00 72 1013.7
20260502113530 38 342 0.9 1.7 0.00 0.00 0.00 72 1013.7
20260502112546 38 341 0.9 2.6 0.00 0.00 0.00 72 1013.6
20260502111522 38 341 0.9 1.7 0.00 0.00 0.00 72 1013.5
20260502110518 38 341 0.9 2.6 0.00 0.00 0.00 72 1013.4
20260502105534 38 341 0.9 1.7 0.00 0.00 0.00 72 1013.3
20260502104529 38 341 0.9 1.7 0.00 0.00 0.00 71 1013.4
20260502103525 38 341 0.9 1.7 0.00 0.00 0.00 71 1013.3
20260502102541 38 341 1.7 2.6 0.00 0.00 0.00 71 1013.3
20260502100553 38 341 1.7 2.6 0.00 0.00 0.00 71 1013.2
20260502091532 38 341 1.7 2.6 0.00 0.00 0.00 70 1013.2
20260502090528 38 342 0.9 1.7 0.00 0.00 0.00 70 1013.1
20260502071522 38 0.0 0.0 0.00 0.00 0.00 70 1012.7
20260502070518 38 50 0.0 1.7 0.00 0.00 0.00 72 1012.7
20260502065534 39 341 0.9 3.5 0.00 0.00 0.00 72 1012.9
20260502064529 39 341 0.9 0.9 0.00 0.00 0.00 71 1013.1
20260502063525 39 341 0.9 2.6 0.00 0.00 0.00 71 1013.1
20260502062521 39 342 1.7 3.5 0.00 0.00 0.00 70 1013.3
20260502061517 39 343 1.7 3.5 0.00 0.00 0.00 70 1013.3
20260502060533 39 350 0.9 1.7 0.00 0.00 0.00 69 1013.2
20260502055528 39 348 0.0 1.7 0.00 0.00 0.00 70 1013.4
20260502054545 39 348 0.0 0.9 0.00 0.00 0.00 70 1013.5
20260502053541 39 33 0.9 1.7 0.00 0.00 0.00 70 1013.4